LiveATC.Net - Listen to live air traffic control over the Internet! Contact for advertising information

ICAO: KACK  IATA: ACK   Airport: Nantucket Memorial Airport
City: Nantucket   State/Province: Massachusetts
Country: United States   Continent: North America
KACK METAR Weather: KACK 292253Z 36010KT 10SM CLR 05/00 A3024 RMK AO2 SLP240 T00500000 $
KACK Flight Activity (FlightAware)
KACK Airport Info   (AirNav) (iFlightPlanner)
KACK VFR Sectional Chart   (iFlightPlanner) 
KACK IFR Low Chart   (iFlightPlanner) 
KACK Tower
Feed Status: UP   Listeners: 2
Listen right in your browser - requires Flash (in browser, requires Flash)
Click here to listen with your own player (launches your MP3 player)
KACK Tower Audio Archives
Nantucket Tower118.300


Unauthorized use prohibited. See Terms of Service

Find LiveATC Audio Streams

Airport/ARTCC Code

(e.g., 124.400, 128.75)
Site-wide search

Browse LiveATC Feeds
LiveATC Coverage Map
Top 50 LiveATC Feeds
Bad Weather Areas

Offer a LiveATC Feed
Press Inquiries

LiveATC on iPhone
LiveATC on Android

Windows Phone
Windows 8/10

LiveATC Mobile
(Mobile browser)

ATC Audio Archives
Interesting Recordings

LiveATC Forums

Home Page
Make a Donation
LiveATC Bookstore

Terms of Use
Privacy Policy

ATC/Radar Sites
U.S. ARTCC Freqs
Canadian Air Freqs


FAA Airport Status
Nat'l Airspace Status
Arrival Demand Charts

Server Software By:

Please make a donation to help us keep growing!